Prescott, AZ

12:34 AM MST on March 28, 2017 (GMT -0700)
Love

Weather History for KPRC - February, 2014

Change the Weather History Date:

Saturday, February 15, 2014

  Actual Average Record
Temperature  
Mean Temperature 54 °F 42 °F  
Max Temperature 74 °F 55 °F 74 °F (2014)
Min Temperature 34 °F 28 °F 8 °F (1990)
Degree Days  
Heating Degree Days 11    
Month to date heating degree days 324  
Since 1 July heating degree days 2716  
Cooling Degree Days 0    
Month to date cooling degree days 0  
Year to date cooling degree days 0  
Growing Degree Days 4 (Base 50)    
Moisture  
Dew Point 14 °F    
Average Humidity 23    
Maximum Humidity 47    
Minimum Humidity 7    
Precipitation  
Precipitation 0.00 in 0.06 in 0.66 in (1986)
Month to date precipitation T 0.69  
Year to date precipitation 0.05 1.81  
Sea Level Pressure  
Sea Level Pressure 30.00 in    
Wind  
Wind Speed 10 mph (SW)    
Max Wind Speed 23 mph    
Max Gust Speed 30 mph    
Visibility 10 miles    
Events      
T = Trace of Precipitation, MM = Missing Value Source: NWS Daily Summary

Daily Weather History Graph

Daily Weather History Graph

Search for Another Location

Airport or City:

Trip Planner

Search our weather history database for the weather conditions in past years. The results will help you decide how hot, cold, wet, or windy it might be!

Date:

Astronomy

Feb. 15, 2014 Rise Set
Actual Time 7:15 AM MST 6:12 PM MST
Civil Twilight 6:49 AM MST 6:38 PM MST
Nautical Twilight 6:19 AM MST 7:08 PM MST
Astronomical Twilight 5:50 AM MST 7:37 PM MST
Moon 7:11 PM MST (2/15) 7:19 AM MST (2/15)
Length of Visible Light 11h 49m
Length of Day
10h 57m
Waxing Gibbous, 99% of the Moon is Illuminated
Feb 15
Waxing Gibbous
Feb 22
Last Quarter
Mar 1
New
Mar 8
First Quarter
Mar 16
Full

Hourly Weather History & Observations

Time (MST) Temp. Windchill Dew Point Humidity Pressure Visibility Wind Dir Wind Speed Gust Speed Precip Events Conditions
12:53 AM 42.1 °F 38.4 °F 21.0 °F 43% 30.03 in 10.0 mi South 5.8 mph - N/A   Clear
1:53 AM 45.0 °F 40.6 °F 19.0 °F 36% 29.99 in 10.0 mi South 8.1 mph - N/A   Clear
2:53 AM 42.1 °F 39.2 °F 17.1 °F 37% 29.99 in 10.0 mi North 4.6 mph - N/A   Clear
3:53 AM 45.0 °F - 18.0 °F 34% 29.98 in 10.0 mi Calm Calm - N/A   Clear
4:53 AM 39.9 °F 33.4 °F 16.0 °F 38% 29.99 in 10.0 mi SSW 10.4 mph - N/A   Clear
5:53 AM 37.0 °F 34.5 °F 15.1 °F 41% 30.02 in 10.0 mi South 3.5 mph - N/A   Clear
6:53 AM 36.0 °F 32.1 °F 17.1 °F 46% 30.05 in 10.0 mi SSW 4.6 mph - N/A   Clear
7:53 AM 39.0 °F 36.8 °F 17.1 °F 41% 30.06 in 10.0 mi South 3.5 mph - N/A   Clear
8:53 AM 52.0 °F - 19.9 °F 28% 30.04 in 10.0 mi SSE 3.5 mph - N/A   Clear
9:53 AM 64.0 °F - 16.0 °F 16% 30.02 in 10.0 mi Calm Calm - N/A   Clear
10:53 AM 69.1 °F - 19.0 °F 15% 30.03 in 10.0 mi North 8.1 mph - N/A   Clear
11:53 AM 70.0 °F - 9.0 °F 9% 30.04 in 10.0 mi West 15.0 mph - N/A   Clear
12:53 PM 73.0 °F - 9.0 °F 8% 30.01 in 10.0 mi WSW 17.3 mph - N/A   Clear
1:53 PM 73.0 °F - 9.0 °F 8% 29.98 in 10.0 mi SW 16.1 mph 26.5 mph N/A   Clear
2:53 PM 72.0 °F - 3.9 °F 7% 29.98 in 10.0 mi WSW 18.4 mph 26.5 mph N/A   Clear
3:53 PM 70.0 °F - 8.1 °F 9% 29.96 in 10.0 mi WSW 13.8 mph - N/A   Clear
4:53 PM 69.1 °F - 9.0 °F 10% 29.97 in 10.0 mi WSW 13.8 mph - N/A   Clear
5:53 PM 64.9 °F - 10.0 °F 12% 30.00 in 10.0 mi SW 13.8 mph - N/A   Clear
6:53 PM 62.1 °F - 10.9 °F 13% 30.02 in 10.0 mi WSW 20.7 mph 25.3 mph N/A   Clear
7:53 PM 61.0 °F - 12.0 °F 15% 30.02 in 10.0 mi SW 12.7 mph - N/A   Clear
8:53 PM 59.0 °F - 14.0 °F 17% 30.00 in 10.0 mi SW 13.8 mph - N/A   Clear
9:53 PM 55.9 °F - 14.0 °F 19% 29.97 in 10.0 mi SSW 12.7 mph - N/A   Clear
10:53 PM 54.0 °F - 15.1 °F 22% 29.96 in 10.0 mi SW 11.5 mph - N/A   Clear
11:53 PM 55.9 °F - 14.0 °F 19% 29.95 in 10.0 mi SW 11.5 mph - N/A   Clear